Regional Weather Roundup
Issued by NWS

Home | Current Version | Previous Version | Graphics & Text | Print | Product List | Glossary On
Versions: 1 2 3 4 5 6 7 8 9 10 11 12 13 14 15 16 17 18 19 20 21 22 23 24 25 26 27 28 29 30 31 32 33 34 35 36 37 38 39 40 41 42 43 44 45 46 47 48 49 50
000
ASUS43 KDTX 100501
RWRMI
MICHIGAN HOURLY REGIONAL WEATHER ROUNDUP
NATIONAL WEATHER SERVICE DETROIT/PONTIAC MI
100 AM EDT THU JUL 10 2014

NOTE: "FAIR" INDICATES FEW OR NO CLOUDS BELOW 12,000 FEET WITH NO
SIGNIFICANT WEATHER AND/OR OBSTRUCTION TO VISIBILITY.

MIZ047>049-052>055-059>063-066>070-074>076-081>083-100600-
SOUTHEAST LOWER MICHIGAN

CITY           SKY/WX    TMP DP  RH WIND       PRES   REMARKS
ADRIAN         CLEAR     62  54  74 N6        30.06R
ALMA           CLEAR     58  52  81 NW3       30.06R
BAD AXE        CLEAR     51  51  97 CALM      30.06R
CARO           CLEAR     56  56  99 CALM      30.05R
DETROIT CITY   PTCLDY    69  54  58 CALM      30.04R
FLINT          CLEAR     58  54  86 CALM      30.04R
GROSSE ILE     CLEAR     63  57  82 CALM      30.03R
HILLSDALE      CLEAR     57  57 100 CALM      30.07R
HOWELL         CLEAR     58  56  94 SW3       30.05R

CITY           SKY/WX    TMP DP  RH WIND       PRES   REMARKS
JACKSON        CLEAR     57  54  89 CALM      30.06R
LAMBERTVILLE   CLEAR     61  55  82 CALM      30.05R
LANSING        CLEAR     57  53  86 CALM      30.06R
LAPEER         FAIR      57  55  91 CALM      30.05R
MASON          CLEAR     57  55  93 CALM      30.06R
MONROE         CLEAR     61  55  82 CALM      30.03R
MT. CLEMENS    CLEAR     60  55  85 W2        30.03S
PONTIAC        CLEAR     59  54  83 CALM      30.04R
PORT HOPE        N/A     54  52  93 SW5       30.03R
PORT HURON     FOG       54  54 100 CALM      30.05R VSB 1
TRI CITIES     CLEAR     60  53  77 N7        30.06R
TROY           CLEAR     62  54  74 CALM      30.05S
SAGINAW HB     MOCLDY    61  55  82 N3        30.04R
$$
MIZ043>046-050>051-056>058-064>065-071>073-077>080-100600-
SOUTHWEST LOWER MICHIGAN

CITY           SKY/WX    TMP DP  RH WIND       PRES   REMARKS
BIG RAPIDS     CLEAR     53  53 100 CALM      30.07R
COLDWATER      CLEAR     57  56  94 CALM      30.07R
FREMONT        FAIR      55  54  99 CALM      30.07R
GRAND RAPIDS   CLEAR     61  53  75 N3        30.07R
IONIA          FAIR      59  51  74 CALM      30.06R
LUDINGTON      PTCLDY    52  51  97 CALM      30.07S
MARSHALL       CLEAR     56  53  92 W8        30.06S
MOUNT PLEASANT CLEAR     57  53  86 CALM      30.06R
MUSKEGON       CLEAR     58  54  86 CALM      30.07R
SOUTH HAVEN    CLEAR     56  56 100 CALM      30.07S
$$
MIZ016>042-100600-
NORTHERN LOWER MICHIGAN

CITY           SKY/WX    TMP DP  RH WIND       PRES   REMARKS
ALPENA         PTCLDY    53  50  89 CALM      30.06R
BEAVER ISLAND  CLEAR     45  45 100 CALM      30.07R
BELLAIRE       CLEAR     49  48  95 CALM      30.07R
CADILLAC       CLEAR     51  51  99 NW5       30.07S
CHARLEVOIX     CLEAR     51  49  93 SW3       30.10R
FRANKFORT      CLEAR     51  48  89 CALM      30.08S
GAYLORD        CLEAR     51  49  92 CALM      30.07R
GRAYLING       CLEAR     48  48 100 CALM      30.08S
HARBOR SPRINGS CLEAR     51  49  94 N5        30.06R
HOUGHTON LAKE  CLEAR     54  50  86 N5        30.07R
MANISTEE       PTCLDY    52  48  87 CALM      30.08S
OSCODA         CLEAR     55  51  88 NW5       30.04S
PELLSTON       PTCLDY    47  46  97 CALM      30.07R FOG
ROGERS CITY    CLEAR     51  50  95 W3        30.07S
TRAVERSE CITY  CLEAR     54  50  86 CALM      30.06R
$$
MIZ007>008-015-100600-
EASTERN UPPER MICHIGAN

CITY           SKY/WX    TMP DP  RH WIND       PRES   REMARKS
KINROSS        CLEAR     46  46 100 W5        30.06R
MACKINAC ISLAN PTCLDY    49  47  93 N6        30.06R
NEWBERRY       CLEAR     44  43  97 CALM      30.06R
S. S. MARIE    PTCLDY    49  44  83 W8        30.04S
$$
MIZ004>006-011>014-085-100600-
CENTRAL UPPER MICHIGAN

CITY           SKY/WX    TMP DP  RH WIND       PRES   REMARKS
MANISTIQUE     CLEAR     44  44  97 CALM      30.06R
ESCANABA       CLEAR     48  45  87 CALM      30.06R
MENOMINEE      CLEAR     52  48  87 CALM      30.06R
SAWYER-GWINN   CLEAR     50  47  87 CALM      30.06S
$$
MIZ001>003-009>011-084-100600-
WESTERN UPPER MICHIGAN

CITY           SKY/WX    TMP DP  RH WIND       PRES   REMARKS
IRON MOUNTAIN  CLEAR     47  44  90 CALM      30.06R
COPPER HARBOR    N/A     51  47  86 W3        30.03S
$$

ABBREVIATIONS USED IN REMARKS
   TC - TEMPERATURE IN CELSIUS
  WCI - WIND CHILL INDEX
   HX - HEAT INDEX
  VSB - VISIBILITY



USA.gov is the U.S. government's official web portal to all federal, state and local government web resources and services.